#timestamp,LO_Frequency,Hit,StdDev 
1543654815.3,286047004.4,N
1543654835.1,286047004.4,N
1543654855.9,286047001.3,N
1543654875.7,286047002.6,N
1543654895.6,286047005.8,N
1543654915.4,286047005.3,N
1543654935.2,286047007.4,N
1543654955.1,286047007.1,N
1543654956.0,286047007.1,N
1543654975.8,286047006.5,N
1543654995.6,286047006.6,N
1543655015.5,286047007.0,N
1543655035.3,286047007.1,N
1543655055.2,286047005.1,N
1543655075.9,286047005.6,N
1543655095.7,286047006.7,N
1543655115.6,286047007.3,N
1543655135.4,286047006.2,N
1543655155.2,286047006.7,N
1543655175.1,286047006.6,N
1543655176.0,286047006.6,N
1543655195.8,286047007.0,Y
1543655215.7,286047001.4,P
1543655235.5,286047003.3,N
1543655255.3,286047005.5,P
1543655275.2,286047003.1,N
1543655295.0,286047001.5,N
1543655295.9,286047001.5,N
1543655315.7,286047003.9,N
1543655335.6,286047007.0,Y
1543655355.4,286047001.7,P
1543655375.3,286047006.0,P
1543655395.1,286047005.6,P
1543655396.0,286047005.6,Y
1543655415.8,286046998.9,P
1543655435.7,286046997.0,N
1543655455.5,286046997.4,N
1543655475.4,286046995.9,N
1543655495.2,286046996.5,N
1543655515.0,286046999.3,N
1543655515.9,286046999.3,N
1543655535.8,286046998.7,N
1543655555.6,286047000.6,N
1543655575.4,286046996.7,N
1543655595.3,286046996.0,N
1543655615.1,286046994.7,N
1543655665.9,286046991.2,E
1543655675.8,286046992.0,N
1543655695.6,286046995.1,P
1543655715.5,286046999.1,N
1543655735.3,286046998.1,N
1543655755.1,286046999.4,N
1543655775.9,286046999.1,N
1543655795.7,286046998.0,N
1543655815.5,286046995.4,N
1543655835.4,286046997.3,N
1543655855.2,286046994.9,N
1543655875.0,286046999.4,N
1543655876.0,286046999.4,N
1543655895.8,286046999.3,N
1543655915.6,286047000.2,N
1543655935.5,286047002.7,N
1543655955.3,286047001.9,N
1543655975.1,286047002.6,N
1543655995.9,286047002.2,N
1543656015.7,286047001.8,N
1543656035.5,286047001.9,N
1543656055.4,286047003.3,N
1543656075.2,286047004.4,N
1543656095.1,286047000.0,N
1543656096.0,286047000.0,N
1543656115.8,286047005.9,N
1543656135.6,286047007.6,N
1543656155.5,286047005.1,N
1543656175.3,286047003.3,N
1543656195.1,286047003.8,N
1543656215.9,286047004.3,N
1543656235.7,286047005.8,N
1543656255.6,286047003.1,N
1543656275.4,286047001.3,N
1543656295.2,286047000.2,N
1543656315.1,286047000.8,N
1543656316.0,286047000.8,N
1543656335.8,286047000.7,N
1543656355.6,286047000.4,N
1543656375.5,286047001.1,N
1543656395.3,286046999.4,N
1543656415.2,286046998.7,N
1543656435.9,286047001.2,N
1543656455.7,286046998.5,N
1543656475.6,286046998.6,N
1543656495.4,286046999.2,N
1543656515.2,286046998.8,N
1543656535.1,286047002.5,N
1543656536.0,286047002.5,N
1543656555.8,286047003.8,N
1543656575.7,286047003.1,N
1543656595.5,286047004.2,N
1543656615.3,286047003.2,N
1543656635.2,286047003.4,N
1543656655.0,286047003.4,N
1543656655.9,286047011.9,Y
1543656675.8,286047000.1,P
1543656695.6,286047001.7,N
1543656715.4,286047003.2,P
1543656735.3,286047007.4,Y
1543656755.1,286047004.1,P
1543656775.8,286047002.3,N
1543656795.7,286046998.1,N
1543656815.5,286046999.0,N
1543656835.4,286046999.4,N
1543656855.2,286046998.9,N
1543656875.0,286046999.0,N
1543656875.9,286046999.0,N
1543656895.8,286047002.6,N
1543656915.6,286047000.5,N
1543656935.4,286046999.8,N
1543656955.3,286047004.0,N
1543656975.1,286047003.6,N
1543656995.9,286047003.0,N
1543657015.7,286047001.6,N
1543657035.5,286047001.6,N
1543657055.4,286047001.0,N
1543657075.2,286047000.7,N
1543657095.0,286046998.4,N
1543657095.9,286046998.4,N
1543657115.8,286047000.6,N
1543657135.6,286046998.4,N
1543657155.4,286046999.1,N
1543657175.3,286047000.0,N
1543657195.1,286047001.5,N
1543657215.9,286047002.6,N
1543657235.7,286047004.3,N
1543657255.5,286047001.4,N
1543657275.4,286047004.2,N
1543657295.2,286047003.8,N
1543657315.0,286047004.7,N
1543657316.0,286047004.7,N
1543657335.8,286047007.6,Y
1543657355.6,286047007.1,P
1543657375.5,286047008.9,N
1543657395.3,286047007.7,N
1543657415.1,286047008.0,N
1543657435.9,286047009.0,Y
1543657455.7,286047001.6,P
1543657475.6,286047007.5,P
1543657495.4,286047005.1,N
1543657515.2,286047003.5,N
1543657535.1,286047004.1,N
1543657536.0,286047004.1,N
1543657555.8,286047000.4,N
1543657575.6,286047001.2,N
1543657595.5,286046999.5,N
1543657615.3,286046998.0,N
1543657635.2,286046995.7,N
1543657655.9,286046995.2,N
1543657675.7,286046995.4,N
1543657695.6,286046997.2,N
1543657715.4,286046996.6,N
1543657735.2,286046999.4,N
1543657755.1,286046995.6,N
1543657756.0,286046995.6,N
1543657775.8,286046995.1,N
1543657795.6,286046996.4,N
1543657815.5,286046993.8,N
1543657835.3,286046996.3,N
1543657855.2,286046996.0,N
1543657875.9,286046994.5,N
1543657895.7,286046992.2,N
1543657915.6,286046992.2,N
1543657935.4,286046996.2,N
1543657955.2,286046997.6,N
1543657975.1,286046996.1,N
1543657976.0,286046996.1,N
1543657995.8,286046996.1,N
1543658015.7,286046993.5,N
1543658035.5,286046992.5,N
1543658055.3,286046992.2,N
1543658075.2,286046992.0,N
1543658095.0,286046990.6,Y
1543658095.9,286046990.6,P
1543658115.8,286046993.3,N
1543658135.6,286046996.1,N
1543658155.4,286046995.6,N
1543658175.3,286046998.0,N
1543658195.1,286046997.2,N
1543658196.0,286046997.2,N
1543658215.8,286046995.6,N
1543658235.7,286046997.9,N
1543658255.5,286046995.9,N
1543658275.3,286046995.6,N
1543658295.2,286046997.6,N
1543658315.0,286046999.7,N
1543658315.9,286046999.7,N
1543658335.8,286047002.8,N
1543658355.6,286047003.2,N
1543658375.4,286047004.2,N
1543658395.3,286047004.0,N
